Regional Weather Roundup
Issued by NWS Sioux Falls, SD

Home | Current Version | Previous Version | Text Only | Print | Product List | Glossary On
Versions: 1 2 3 4 5 6 7 8 9 10 11 12 13 14 15 16 17 18 19 20 21 22 23 24 25 26 27 28 29 30 31 32 33 34 35 36 37 38 39 40 41 42 43 44 45 46 47 48 49 50
000
ASUS43 KFSD 230102
RWRFSD

WEATHER ROUNDUP FOR SE SOUTH DAKOTA/SW MINNESOTA/NW IOWA
NATIONAL WEATHER SERVICE SIOUX FALLS SD
800 PM CDT FRI MAY 22 2015

NOTE: "FAIR" INDICATES FEW OR NO CLOUDS BELOW 12,000 FEET WITH NO
SIGNIFICANT WEATHER AND OR OBSTRUCTIONS TO VISIBILITY.


SDZ038>040-050-052>070-230200-
SOUTHEAST SOUTH DAKOTA

CITY           SKY/WX    TMP DP  RH WIND       PRES   REMARKS
BROOKINGS      CLOUDY    66  39  37 SW16G24   30.15R
CHAMBERLAIN    CLOUDY    57  43  58 S16       30.16S
HURON          CLOUDY    63  42  46 SW23      30.15R
MADISON        FAIR      61  41  48 SW21G30   30.16R
MITCHELL       CLOUDY    60  43  53 SW14G23   30.18R
SIOUX FALLS    CLOUDY    61  42  49 SW16G26   30.18R
WINNER         CLOUDY    56  40  55 S14       30.15S
YANKTON        CLOUDY    61  39  44 S14G21    30.16F
$$

MNZ071-072-080-081-089-090-097-098-230200-
SOUTHWEST MINNESOTA

CITY           SKY/WX    TMP DP  RH WIND       PRES   REMARKS
FAIRMONT       CLOUDY    70  34  26 SE7       30.16S
JACKSON        CLOUDY    70  36  28 SE5       30.17S
LUVERNE        CLOUDY    64  37  36 W22G29    30.17R
MARSHALL       MOCLDY    72  36  26 SE7       30.13S
MONTEVIDEO     MOCLDY    70  39  32 SE6       30.14F
REDWOOD FALLS  CLOUDY    72  32  23 E7        30.14F
TRACY          CLOUDY    72  34  25 SE7       30.14S
WINDOM         CLOUDY    70  30  23 CALM      30.16S
WORTHINGTON    CLOUDY    70  32  24 S7        30.16S
$$

IAZ001>003-012>014-020>022-031-032-NEZ013-014-SDZ071-230200-
NORTHWEST IOWA

CITY           SKY/WX    TMP DP  RH WIND       PRES   REMARKS
DENISON        CLOUDY    57  52  82 CALM      30.18F
ESTHERVILLE    CLOUDY    69  36  29 S5        30.16S
LE MARS        CLOUDY    63  43  48 S12G18    30.20S
ORANGE CITY    CLOUDY    61  43  51 SW14      30.19S
SIOUX CITY     LGT RAIN  59  46  62 S9        30.19S
SPENCER        CLOUDY    69  42  37 SW13      30.17R
$$

ABBREVIATIONS USED IN REMARKS
   TC - TEMPERATURE IN CELSIUS
  WCI - WIND CHILL INDEX
   HX - HEAT INDEX
  VSB - VISIBILITY




USA.gov is the U.S. government's official web portal to all federal, state and local government web resources and services.